�������C�����ː����j�^�v���󋵏��
Date,Time,Cs137(Bq/L),Cs134(Bq/L),�S��(Bq/L)
2020/02/09,00:00,0.21,ND,24
2020/02/09,00:10,0.20,ND,22
2020/02/09,00:20,0.19,ND,22
2020/02/09,00:30,0.18,ND,22
2020/02/09,00:40,0.18,ND,22
2020/02/09,00:50,0.12,ND,22
2020/02/09,01:00,0.11,ND,23
2020/02/09,01:10,0.13,ND,22
2020/02/09,01:20,0.12,ND,20
2020/02/09,01:30,0.17,ND,20
2020/02/09,01:40,0.16,ND,19
2020/02/09,01:50,0.18,ND,20
2020/02/09,02:00,0.16,ND,20
2020/02/09,02:10,0.16,ND,23
2020/02/09,02:20,0.15,ND,23
2020/02/09,02:30,0.14,ND,21
2020/02/09,02:40,0.089,ND,20
2020/02/09,02:50,0.071,ND,18
2020/02/09,03:00,0.068,ND,17
2020/02/09,03:10,0.060,ND,18
2020/02/09,03:20,0.062,ND,19
2020/02/09,03:30,ND,ND,19
2020/02/09,03:40,0.054,ND,21
2020/02/09,03:50,0.050,ND,22
2020/02/09,04:00,0.083,ND,21
2020/02/09,04:10,0.074,ND,22
2020/02/09,04:20,0.079,ND,22
2020/02/09,04:30,0.10,ND,22
2020/02/09,04:40,0.11,ND,21
2020/02/09,04:50,0.11,ND,20
2020/02/09,05:00,0.12,ND,19
2020/02/09,05:10,0.12,ND,19
2020/02/09,05:20,0.094,ND,17
2020/02/09,05:30,0.073,ND,18
2020/02/09,05:40,0.075,ND,18
2020/02/09,05:50,0.080,ND,17
2020/02/09,06:00,0.12,ND,18
2020/02/09,06:10,0.12,ND,18
2020/02/09,06:20,0.11,ND,17
2020/02/09,06:30,0.071,ND,18
2020/02/09,06:40,0.13,ND,18
2020/02/09,06:50,0.076,ND,22
2020/02/09,07:00,0.071,ND,24
2020/02/09,07:10,0.077,ND,24
2020/02/09,07:20,0.070,ND,26
2020/02/09,07:30,0.13,ND,26
2020/02/09,07:40,0.12,ND,25
2020/02/09,07:50,0.10,ND,22
2020/02/09,08:00,0.15,ND,20
2020/02/09,08:10,0.11,ND,19
2020/02/09,08:20,0.12,ND,17
2020/02/09,08:30,0.11,ND,16
2020/02/09,08:40,0.10,ND,16
2020/02/09,08:50,0.15,ND,17
2020/02/09,09:00,0.13,ND,18
2020/02/09,09:10,0.15,ND,20
2020/02/09,09:20,0.15,ND,18
2020/02/09,09:30,0.15,ND,16
2020/02/09,09:40,0.15,ND,18
2020/02/09,09:50,0.11,ND,17
2020/02/09,10:00,0.12,ND,16
2020/02/09,10:10,0.10,ND,17
2020/02/09,10:20,0.091,ND,19
2020/02/09,10:30,0.11,ND,22
2020/02/09,10:40,0.11,ND,21
2020/02/09,10:50,0.11,ND,22
2020/02/09,11:00,0.11,ND,23
2020/02/09,11:10,0.088,ND,21
2020/02/09,11:20,0.12,ND,21
2020/02/09,11:30,0.12,ND,21
2020/02/09,11:40,0.10,ND,19
2020/02/09,11:50,0.098,ND,20
2020/02/09,12:00,0.094,ND,21
2020/02/09,12:10,0.11,ND,20
2020/02/09,12:20,0.12,ND,22
2020/02/09,12:30,0.11,ND,21
2020/02/09,12:40,0.13,ND,21
2020/02/09,12:50,0.14,ND,20
2020/02/09,13:00,0.13,ND,18
2020/02/09,13:10,0.14,ND,20
2020/02/09,13:20,0.15,ND,21
2020/02/09,13:30,0.16,ND,19
2020/02/09,13:40,0.16,ND,20
2020/02/09,13:50,0.081,ND,22
2020/02/09,14:00,0.16,ND,21
2020/02/09,14:10,0.15,ND,19
2020/02/09,14:20,0.12,ND,19
2020/02/09,14:30,0.10,ND,19
2020/02/09,14:40,0.096,ND,20
2020/02/09,14:50,0.051,ND,17
2020/02/09,15:00,0.048,ND,18
2020/02/09,15:10,0.062,ND,18
2020/02/09,15:20,0.076,ND,18
2020/02/09,15:30,0.080,ND,19
2020/02/09,15:40,0.13,ND,18
2020/02/09,15:50,0.12,ND,18
2020/02/09,16:00,0.10,ND,18
2020/02/09,16:10,0.088,ND,17
2020/02/09,16:20,0.10,ND,16
2020/02/09,16:30,0.10,ND,16
2020/02/09,16:40,0.11,ND,19
2020/02/09,16:50,0.12,ND,17
2020/02/09,17:00,0.13,ND,19
2020/02/09,17:10,0.14,ND,20
2020/02/09,17:20,0.13,ND,22
2020/02/09,17:30,0.090,ND,20
2020/02/09,17:40,0.074,ND,18
2020/02/09,17:50,0.087,ND,23
2020/02/09,18:00,0.082,ND,21
2020/02/09,18:10,0.13,ND,19
2020/02/09,18:20,0.079,ND,18
2020/02/09,18:30,0.081,ND,21
2020/02/09,18:40,0.14,ND,22
2020/02/09,18:50,0.090,ND,20
2020/02/09,19:00,0.14,ND,18
2020/02/09,19:10,0.13,ND,17
2020/02/09,19:20,0.15,ND,16
2020/02/09,19:30,0.18,ND,17
2020/02/09,19:40,0.18,ND,16
2020/02/09,19:50,0.18,ND,16
2020/02/09,20:00,0.16,ND,18
2020/02/09,20:10,0.20,ND,18
2020/02/09,20:20,0.20,ND,20
2020/02/09,20:30,0.21,ND,20
2020/02/09,20:40,0.21,ND,20
2020/02/09,20:50,0.21,ND,22
2020/02/09,21:00,0.22,ND,23
2020/02/09,21:10,0.22,ND,22
2020/02/09,21:20,0.21,ND,21
2020/02/09,21:30,0.21,ND,19
2020/02/09,21:40,0.21,ND,18
2020/02/09,21:50,0.22,ND,17
2020/02/09,22:00,0.23,ND,18
2020/02/09,22:10,0.22,ND,19
2020/02/09,22:20,0.23,ND,19
2020/02/09,22:30,0.23,ND,19
2020/02/09,22:40,0.23,ND,21
2020/02/09,22:50,0.23,ND,21
2020/02/09,23:00,0.23,ND,20
2020/02/09,23:10,0.26,ND,20
2020/02/09,23:20,0.27,ND,21
2020/02/09,23:30,0.28,ND,20
2020/02/09,23:40,0.28,ND,18
2020/02/09,23:50,0.28,ND,17
